カタログに戻る

STARLINK-5821

運用中通信VLEO
NORAD 57069·PAYLOAD·🇺🇸 United States

打ち上げ Jun 22, 2023 から Vandenberg Space Force Base

Loading…

次のパス (今後24時間)

TLE

最新Source: CelesTrak SupGP

元期: Sep 14, 2026, 22:28 UTC

1 57069C 23088X   26257.93659722  .00018522  00000+0  67109-3 0  2573
2 57069  43.0024 107.7741 0001341 272.4033 258.7831 15.27558488    17

AllMySatでSTARLINK-5821をリアルタイム追跡

Download on the App Store